Wind_Speed
26 27 28 28 28 28 29 29 30 30 30 31 32 33 33 34 35 35 35 36 36 36 35 36 35 34 35 35 35 35 35 35 35 34 34 34 34 34 34 35 35 34 34
27 28 28 29 30 30 31 31 31 31 31 32 33 34 34 35 36 37 37 37 37 37 37 37 37 37 36 36 35 36 37 36 36 36 36 36 36 36 36 36 36 36 35
29 29 30 30 31 32 32 32 32 32 32 33 34 34 35 36 37 38 39 39 38 38 38 39 39 39 39 38 37 37 38 39 38 38 38 38 38 38 38 38 38 36 36
30 31 31 32 32 33 33 32 32 32 33 34 34 35 35 36 37 38 39 39 39 39 39 39 39 40 40 40 40 40 39 40 40 40 40 40 40 40 39 39 38 38 39
31 32 32 32 33 33 32 32 33 33 34 35 36 36 37 37 37 38 38 39 40 41 40 40 40 41 41 41 41 41 41 41 41 41 42 42 41 41 41 41 41 40 40
33 34 34 33 34 34 34 34 34 35 36 37 37 38 38 38 38 38 38 39 40 40 41 42 42 42 42 42 43 43 42 43 43 43 43 43 43 42 42 42 42 42 42
33 34 36 35 35 35 35 35 36 36 36 37 37 37 38 38 39 38 38 38 39 39 40 41 42 42 43 43 44 43 43 44 44 45 44 43 43 43 43 43 43 43 43
34 34 35 35 34 35 36 37 37 37 38 38 38 38 37 37 38 38 38 38 38 38 39 40 41 42 42 43 44 44 44 44 44 45 45 44 43 43 43 42 43 43 44
34 34 35 35 35 35 36 37 37 37 37 37 37 37 37 37 37 37 38 38 38 38 38 38 39 39 40 41 42 43 44 44 43 42 43 43 43 44 45 44 43 43 43
36 36 36 36 36 37 37 37 38 37 37 36 36 37 37 38 38 37 37 37 38 38 38 39 39 38 38 38 40 42 42 43 43 43 42 42 42 43 43 43 43 43 42
38 38 38 38 38 38 38 38 37 37 37 36 35 36 36 36 37 37 37 38 38 39 40 40 40 39 38 39 39 41 42 42 42 42 42 43 42 42 43 44 44 44 43
38 38 38 39 39 39 38 38 38 36 36 35 35 35 36 35 36 37 37 38 38 38 38 39 40 40 39 39 39 40 40 41 41 41 41 42 43 42 43 43 44 44 44
37 37 38 37 37 37 37 37 35 35 35 35 35 36 36 36 37 38 37 37 37 38 39 39 39 39 39 39 38 38 38 39 40 40 40 41 41 41 41 42 43 43 43
37 37 38 37 36 35 35 35 34 35 35 36 36 37 38 38 38 38 37 37 36 37 38 38 39 39 39 40 40 39 38 39 39 40 41 42 42 41 41 41 42 42 42
38 38 38 38 38 35 35 35 35 34 36 37 37 38 38 40 40 40 39 38 37 37 36 37 38 38 39 40 41 40 39 39 40 40 39 40 40 40 40 39 39 39 40
38 38 38 38 38 38 37 36 36 36 36 37 37 38 39 40 40 40 39 39 38 37 36 37 37 38 38 39 39 40 40 40 41 41 40 39 39 39 39 39 39 39 39
39 39 39 39 40 40 39 39 39 38 38 38 38 38 39 39 39 38 39 39 39 39 38 38 38 38 39 40 40 39 40 40 40 40 40 40 39 39 39 39 39 39 40
40 40 40 40 41 41 41 41 40 40 40 40 39 39 39 39 38 39 39 39 39 40 40 40 40 40 41 41 41 41 40 40 40 40 40 41 41 41 40 40 41 40 40
41 41 41 41 41 41 42 42 42 41 41 41 40 40 41 40 40 40 39 40 40 40 40 40 40 41 41 42 42 41 40 40 41 41 42 42 43 43 43 42 41 41 41
42 42 42 42 43 43 43 43 42 42 42 42 42 42 42 43 42 42 42 42 42 42 42 42 42 42 41 42 41 41 41 41 42 42 42 42 43 42 43 42 42 42 42
44 45 45 44 44 44 44 44 44 43 44 44 44 44 44 44 44 44 44 44 44 43 43 43 43 42 42 42 41 41 41 41 41 41 41 41 41 42 42 42 42 43 43
45 45 45 45 45 45 45 44 45 45 45 45 45 45 45 45 45 45 45 45 45 44 44 44 43 43 42 42 42 41 41 40 40 40 40 41 41 41 42 43 43 44 45
45 45 45 45 45 45 45 46 46 46 47 47 47 47 47 47 47 46 45 45 45 45 44 44 43 42 41 41 41 41 41 40 41 41 40 40 42 43 43 43 44 44 45
47 47 47 47 46 46 46 47 47 47 48 48 48 48 48 48 47 46 46 46 45 45 44 43 43 42 42 42 41 41 41 41 41 41 41 41 42 43 44 45 45 45 46
48 48 48 48 47 47 47 47 48 48 49 49 49 50 49 48 47 47 46 46 45 45 44 44 43 43 42 42 42 42 42 42 42 42 43 43 43 43 44 45 46 46 46
48 48 48 48 48 48 48 48 49 49 49 49 49 49 49 48 47 47 46 45 45 45 44 44 43 43 43 43 43 43 43 43 44 44 44 44 44 45 44 45 46 47 47
Wind_Direction
264 265 266 267 269 270 271 272 273 274 273 273 272 272 273 274 273 273 273 273 273 273 274 273 273 274 275 274 274 275 275 277 277 277 278 279 280 281 282 283 284 285 285
264 266 267 268 269 270 271 272 273 274 274 274 274 274 275 275 274 272 272 273 274 273 272 273 272 272 273 274 275 275 275 276 277 277 277 278 279 280 281 282 282 282 283
264 267 268 269 270 271 272 272 271 272 273 274 275 276 275 275 275 274 273 273 273 273 273 273 272 272 272 273 275 276 275 275 276 277 277 278 278 279 280 280 281 280 281
265 266 269 270 271 273 273 273 273 274 274 275 276 277 278 278 277 274 273 272 272 273 273 273 272 272 272 273 274 274 275 275 275 276 277 277 277 277 278 279 280 280 280
264 266 269 271 270 272 275 275 274 276 276 277 278 278 279 279 279 277 275 273 272 272 273 274 273 272 272 273 273 273 273 275 276 276 275 276 276 276 276 277 278 279 280
263 265 267 271 272 274 276 277 278 277 278 278 279 279 279 279 280 279 277 276 275 273 273 273 274 273 273 272 273 273 273 273 275 277 276 275 275 275 276 277 276 277 279
263 266 268 272 274 274 276 278 279 279 280 280 280 280 280 280 280 280 278 277 276 275 274 274 275 275 273 272 271 272 273 273 274 276 276 276 275 275 275 276 275 276 277
265 266 267 270 274 274 276 279 280 280 281 281 279 280 280 280 280 279 278 278 276 276 276 276 276 275 274 273 272 272 273 274 275 275 275 275 275 274 275 275 275 277 277
266 268 269 271 275 277 277 278 280 281 281 282 281 281 281 280 280 278 278 278 277 276 276 277 278 278 276 275 273 272 274 275 275 276 276 275 275 274 273 273 275 277 279
265 267 269 271 275 278 279 280 280 280 281 283 282 281 282 282 281 279 279 278 278 277 277 277 278 279 277 277 275 274 275 275 275 276 276 276 275 275 273 273 275 276 277
267 269 270 272 274 277 278 279 279 282 282 282 283 283 283 283 282 281 279 279 279 279 278 278 277 277 276 277 277 276 275 276 276 277 277 276 276 276 275 275 275 277 277
268 270 271 273 274 275 275 278 280 280 281 282 283 283 283 284 284 283 282 281 281 281 279 278 278 277 276 277 278 277 276 276 277 277 277 277 276 276 278 276 276 276 276
270 270 270 274 276 276 276 277 278 279 281 283 283 283 284 284 284 283 283 282 281 281 281 279 279 278 276 277 278 278 276 277 278 278 277 277 277 278 278 276 275 275 275
271 271 271 273 274 276 277 278 279 280 281 282 283 283 283 283 283 284 284 283 282 282 282 281 280 279 278 277 277 277 279 278 277 278 278 278 278 279 279 278 276 274 273
271 271 271 271 273 274 275 278 280 280 281 282 283 282 282 282 283 283 283 283 283 283 283 282 281 279 278 278 278 277 279 278 278 279 279 278 278 278 278 277 277 276 275
272 272 272 272 272 273 276 278 279 278 280 281 282 282 282 282 281 281 281 282 282 283 283 282 281 280 279 279 278 277 277 278 278 279 279 279 278 277 277 277 277 277 276
274 274 274 274 274 275 277 278 279 279 279 280 281 282 282 281 280 280 280 281 282 282 282 280 279 279 279 280 279 280 280 279 279 279 278 278 277 277 277 277 278 277 276
275 275 276 276 276 276 277 278 278 279 279 280 281 281 281 280 280 280 280 280 281 281 282 281 279 278 278 279 279 280 280 280 279 278 278 278 277 276 277 278 278 277 276
274 274 275 275 276 277 278 278 277 278 279 280 281 282 281 280 280 280 280 280 280 281 281 282 281 280 279 278 279 279 279 278 278 278 277 278 278 278 277 278 277 277 277
274 275 275 275 276 277 278 277 277 277 279 280 281 281 281 280 280 280 280 281 281 281 281 281 281 281 280 279 279 278 277 277 278 278 277 277 278 278 278 278 277 276 277
274 275 275 275 276 277 277 277 276 277 278 279 280 281 281 280 279 279 280 280 281 280 280 281 281 280 280 280 279 278 278 278 278 278 278 278 278 278 278 278 277 277 278
274 275 276 276 276 276 276 276 276 276 277 278 279 279 280 279 279 279 279 280 280 280 279 279 279 279 279 278 277 277 278 278 278 278 279 278 278 278 278 278 277 277 277
275 275 276 276 276 277 276 276 276 276 277 278 278 279 279 279 279 278 278 279 279 278 278 277 277 277 277 277 277 277 277 278 278 278 278 279 279 279 279 279 279 279 279
275 275 276 276 276 276 276 276 276 277 278 278 278 279 279 278 278 277 277 277 277 277 276 276 277 276 277 277 276 276 277 277 278 278 278 279 279 279 280 280 280 281 282
275 275 275 276 276 276 276 277 277 278 279 279 278 278 278 278 277 276 276 276 276 275 275 275 276 276 276 276 276 277 277 277 278 278 279 279 279 280 281 282 282 283 284
275 275 275 275 276 276 277 277 278 279 279 279 279 278 278 277 275 276 275 275 274 274 274 274 274 276 276 276 276 277 278 278 279 279 279 280 280 281 281 282 283 283 284
Height
5809 5809 5810 5810 5810 5810 5810 5810 5810 5810 5810 5810 5810 5810 5809 5809 5808 5808 5809 5809 5808 5808 5809 5809 5808 5808 5808 5808 5808 5808 5808 5807 5807 5807 5807 5806 5806 5806 5805 5804 5804 5803 5802
5803 5803 5803 5804 5804 5804 5804 5804 5804 5803 5803 5803 5802 5802 5801 5801 5800 5800 5800 5800 5800 5800 5800 5800 5800 5800 5800 5800 5800 5800 5800 5799 5799 5799 5798 5798 5798 5797 5797 5796 5796 5795 5795
5797 5797 5797 5797 5797 5797 5796 5796 5796 5796 5796 5795 5794 5794 5793 5792 5792 5791 5791 5791 5791 5791 5791 5791 5791 5791 5791 5792 5791 5791 5791 5791 5791 5790 5790 5790 5789 5789 5788 5788 5787 5787 5786
5790 5790 5790 5790 5790 5790 5789 5789 5789 5788 5788 5787 5786 5786 5785 5784 5783 5782 5781 5781 5782 5782 5782 5782 5782 5782 5782 5783 5783 5782 5782 5782 5781 5781 5781 5780 5780 5780 5779 5779 5778 5778 5777
5783 5783 5783 5783 5782 5782 5782 5782 5781 5780 5780 5779 5778 5777 5776 5775 5774 5773 5772 5772 5772 5772 5773 5773 5773 5773 5773 5773 5773 5773 5772 5772 5771 5771 5771 5771 5770 5770 5770 5770 5769 5769 5768
5775 5775 5776 5775 5775 5775 5774 5774 5773 5772 5771 5771 5770 5769 5767 5766 5765 5764 5763 5763 5762 5762 5763 5763 5763 5763 5763 5763 5763 5763 5762 5762 5761 5760 5760 5760 5760 5760 5760 5760 5759 5759 5758
5767 5767 5768 5768 5767 5767 5766 5765 5765 5763 5762 5761 5761 5760 5758 5757 5756 5755 5754 5753 5753 5753 5752 5753 5753 5752 5752 5751 5751 5751 5751 5751 5750 5750 5750 5749 5749 5749 5749 5749 5749 5749 5749
5759 5760 5760 5760 5759 5759 5758 5757 5756 5755 5754 5752 5751 5750 5749 5749 5747 5746 5745 5744 5743 5743 5743 5742 5742 5741 5741 5740 5740 5740 5740 5740 5739 5739 5739 5739 5738 5738 5738 5738 5738 5738 5738
5752 5752 5751 5751 5751 5751 5750 5749 5747 5746 5745 5743 5741 5741 5740 5740 5739 5738 5736 5735 5734 5733 5733 5732 5732 5731 5730 5729 5729 5729 5729 5729 5728 5728 5727 5728 5728 5728 5728 5728 5727 5727 5727
5744 5744 5743 5743 5742 5742 5741 5740 5739 5737 5736 5734 5733 5732 5731 5730 5729 5729 5729 5727 5725 5724 5723 5723 5722 5721 5720 5719 5719 5719 5718 5718 5717 5717 5717 5716 5717 5717 5717 5717 5717 5717 5717
5735 5735 5735 5734 5734 5733 5732 5731 5730 5728 5727 5726 5725 5724 5722 5721 5720 5720 5720 5719 5717 5716 5714 5713 5712 5711 5710 5710 5709 5708 5708 5707 5707 5707 5706 5706 5706 5706 5706 5706 5706 5706 5706
5726 5726 5726 5726 5725 5724 5723 5722 5721 5720 5718 5717 5716 5715 5714 5713 5712 5710 5710 5710 5709 5707 5705 5704 5703 5702 5701 5700 5699 5699 5698 5698 5697 5696 5696 5696 5696 5696 5695 5695 5695 5695 5695
5717 5717 5717 5716 5716 5715 5714 5713 5712 5711 5710 5709 5707 5706 5705 5704 5703 5701 5701 5700 5699 5699 5697 5695 5694 5693 5692 5691 5690 5689 5689 5688 5687 5687 5686 5686 5686 5685 5685 5684 5684 5684 5684
5709 5708 5708 5707 5707 5706 5705 5704 5703 5702 5701 5700 5698 5697 5696 5695 5694 5692 5691 5690 5690 5689 5688 5686 5685 5683 5682 5681 5680 5679 5679 5678 5677 5677 5676 5676 5675 5675 5674 5673 5673 5672 5672
5700 5699 5699 5698 5697 5697 5696 5695 5694 5693 5692 5691 5689 5688 5687 5685 5684 5683 5682 5681 5680 5679 5679 5677 5675 5674 5672 5671 5670 5670 5669 5668 5668 5667 5666 5666 5665 5664 5663 5662 5661 5661 5661
5690 5690 5690 5689 5688 5687 5686 5686 5685 5683 5682 5681 5680 5678 5677 5676 5674 5673 5672 5671 5670 5669 5668 5667 5665 5664 5662 5661 5660 5659 5659 5658 5657 5657 5656 5655 5654 5654 5653 5652 5651 5650 5650
5681 5680 5680 5679 5679 5678 5677 5676 5675 5674 5673 5672 5670 5669 5667 5666 5664 5663 5662 5661 5660 5659 5658 5657 5655 5654 5652 5651 5650 5649 5648 5647 5647 5646 5645 5645 5644 5643 5642 5642 5641 5640 5639
5670 5670 5670 5669 5668 5667 5666 5665 5664 5664 5663 5661 5660 5658 5657 5655 5654 5653 5651 5650 5649 5648 5647 5646 5645 5643 5642 5641 5640 5639 5638 5637 5636 5635 5634 5634 5633 5632 5632 5631 5630 5629 5628
5660 5659 5659 5658 5658 5657 5656 5655 5654 5653 5652 5651 5649 5648 5646 5645 5644 5642 5641 5639 5638 5637 5636 5635 5634 5633 5631 5630 5629 5628 5627 5626 5625 5624 5623 5622 5621 5621 5620 5619 5618 5618 5617
5649 5648 5648 5647 5646 5645 5644 5643 5642 5641 5641 5640 5638 5637 5635 5634 5633 5631 5630 5628 5627 5626 5625 5624 5623 5622 5621 5619 5618 5617 5616 5615 5614 5613 5612 5611 5610 5609 5608 5607 5607 5606 5605
5637 5637 5636 5635 5634 5633 5632 5631 5630 5630 5629 5628 5626 5625 5624 5622 5621 5619 5618 5617 5616 5614 5613 5612 5611 5610 5609 5608 5607 5606 5605 5604 5602 5601 5600 5598 5598 5597 5595 5595 5594 5593 5592
5625 5625 5624 5623 5622 5621 5620 5619 5618 5617 5616 5615 5614 5613 5611 5610 5608 5607 5606 5605 5604 5603 5602 5600 5599 5598 5597 5596 5595 5594 5593 5592 5591 5590 5588 5587 5585 5584 5583 5582 5581 5580 5578
5612 5612 5611 5610 5610 5608 5607 5606 5605 5604 5604 5603 5601 5600 5599 5597 5596 5595 5593 5592 5591 5590 5589 5588 5587 5586 5585 5584 5583 5582 5581 5580 5579 5578 5577 5576 5573 5571 5570 5568 5567 5566 5564
5599 5599 5598 5597 5596 5595 5594 5593 5592 5591 5590 5589 5588 5586 5585 5584 5582 5581 5581 5580 5578 5577 5576 5576 5575 5574 5573 5572 5571 5570 5569 5568 5567 5565 5565 5564 5562 5560 5558 5555 5554 5552 5551
5586 5585 5584 5584 5583 5582 5580 5579 5578 5577 5576 5575 5574 5572 5571 5570 5569 5568 5567 5567 5566 5565 5563 5563 5562 5561 5560 5559 5558 5558 5557 5556 5555 5553 5552 5551 5549 5548 5546 5543 5540 5538 5536
5572 5571 5570 5569 5568 5567 5566 5565 5564 5563 5562 5561 5560 5558 5557 5556 5555 5553 5553 5553 5552 5552 5551 5550 5550 5549 5548 5547 5546 5545 5544 5543 5542 5541 5540 5538 5536 5534 5534 5531 5527 5524 5522